When you browse on this site, cookies collect data to enhance your experience and personalize the content and advertising you see.
Visit our Privacy Policy to learn more. By continuing to use the site, you agree to this use of cookies and data.
  • în România
  • Lista ţărilor
  • Pe 7 zile
  • Temperatura apei
  • Hartă satelitară
  • Meteo pe hartă
  • Widget-uri
  • user-avatar
    Intrare

    Meteo pe oră la Rogatyy Prud

    Astăzi, 25 Martie, Luni

    Timp Temperatura Precipitaţii Vânt Presiune Umiditate
    00:00 -4°C° 0 mm 2 m/s 741 mmHg 94%
    01:00 -4°C° 0 mm 2 m/s 741 mmHg 95%
    02:00 -4°C° 0 mm 3 m/s 740 mmHg 95%
    03:00 -4°C° 0 mm 3 m/s 740 mmHg 96%
    04:00 -3°C° 0 mm 4 m/s 740 mmHg 96%
    05:00 -3°C° 0 mm 4 m/s 739 mmHg 95%
    06:00 -2°C° 0 mm 5 m/s 739 mmHg 95%
    07:00 -4°C° 0 mm 5 m/s 739 mmHg 94%
    08:00 -4°C° 0 mm 5 m/s 740 mmHg 93%
    09:00 -4°C° 0 mm 6 m/s 740 mmHg 92%
    10:00 -4°C° 0 mm 5 m/s 740 mmHg 94%
    11:00 -2°C° 0 mm 5 m/s 740 mmHg 97%
    12:00 -2°C° 0 mm 5 m/s 741 mmHg 99%
    13:00 -2°C° 0 mm 4 m/s 741 mmHg 99%
    14:00 -1°C° 0 mm 4 m/s 741 mmHg 99%
    15:00 -1°C° 0 mm 4 m/s 742 mmHg 99%
    16:00 -1°C° 0 mm 4 m/s 742 mmHg 95%
    17:00 -1°C° 0 mm 3 m/s 743 mmHg 92%
    18:00 -1°C° 0 mm 3 m/s 743 mmHg 88%
    19:00 -2°C° 0 mm 3 m/s 743 mmHg 87%
    20:00 -4°C° 0 mm 3 m/s 744 mmHg 86%
    21:00 -4°C° 0 mm 3 m/s 744 mmHg 85%
    22:00 -4°C° 0 mm 2 m/s 744 mmHg 84%
    23:00 -4°C° 0 mm 2 m/s 744 mmHg 82%

    Mâine, 26 Martie, Marţi

    Timp Temperatura Precipitaţii Vânt Presiune Umiditate
    00:00 -4°C° 0 mm 2 m/s 744 mmHg 81%
    01:00 -4°C° 0 mm 2 m/s 744 mmHg 82%
    02:00 -4°C° 0 mm 3 m/s 744 mmHg 82%
    03:00 -4°C° 0 mm 3 m/s 744 mmHg 83%
    04:00 -2°C° 0 mm 3 m/s 744 mmHg 83%
    05:00 -3°C° 0 mm 4 m/s 743 mmHg 83%
    06:00 -4°C° 0 mm 5 m/s 742 mmHg 84%
    07:00 -2°C° 0.2 mm 5 m/s 742 mmHg 86%
    08:00 -2°C° 0.2 mm 6 m/s 741 mmHg 88%
    09:00 -2°C° 0.2 mm 7 m/s 741 mmHg 90%
    10:00 -1°C° 1 mm 7 m/s 740 mmHg 93%
    11:00 -1°C° 1 mm 8 m/s 740 mmHg 96%
    12:00 0°C° 1 mm 8 m/s 739 mmHg 99%
    13:00 0°C° 0 mm 7 m/s 739 mmHg 98%
    14:00 0°C° 0 mm 7 m/s 740 mmHg 97%
    15:00 +1°C° 0 mm 6 m/s 740 mmHg 96%
    16:00 +1°C° 0 mm 5 m/s 741 mmHg 92%
    17:00 +1°C° 0 mm 3 m/s 741 mmHg 89%
    18:00 +2°C° 0 mm 2 m/s 742 mmHg 85%
    19:00 +2°C° 0 mm 2 m/s 742 mmHg 87%
    20:00 +2°C° 0 mm 2 m/s 742 mmHg 88%
    21:00 +1°C° 0 mm 3 m/s 743 mmHg 89%
    22:00 +2°C° 0 mm 2 m/s 743 mmHg 89%
    23:00 +2°C° 0 mm 2 m/s 743 mmHg 89%

    Poimâine, 27 Martie, Miercuri

    Timp Temperatura Precipitaţii Vânt Presiune Umiditate
    00:00 +1°C° 0 mm 2 m/s 743 mmHg 89%
    01:00 +1°C° 0 mm 2 m/s 743 mmHg 89%
    02:00 +1°C° 0 mm 2 m/s 742 mmHg 89%
    03:00 +2°C° 0 mm 1 m/s 742 mmHg 90%
    04:00 +2°C° 0.1 mm 1 m/s 743 mmHg 91%
    05:00 +2°C° 0.1 mm 1 m/s 743 mmHg 92%
    06:00 +2°C° 0.1 mm 1 m/s 743 mmHg 93%
    07:00 +1°C° 0 mm 2 m/s 743 mmHg 94%
    08:00 +1°C° 0 mm 2 m/s 743 mmHg 96%
    09:00 +1°C° 0 mm 2 m/s 744 mmHg 97%
    10:00 +1°C° 0 mm 2 m/s 744 mmHg 97%
    11:00 +1°C° 0 mm 2 m/s 744 mmHg 97%
    12:00 +1°C° 0 mm 2 m/s 744 mmHg 98%
    13:00 +1°C° 0 mm 2 m/s 745 mmHg 97%
    14:00 +1°C° 0 mm 2 m/s 745 mmHg 97%
    15:00 +1°C° 0 mm 2 m/s 745 mmHg 97%
    16:00 -1°C° 0 mm 2 m/s 745 mmHg 97%
    17:00 -1°C° 0 mm 3 m/s 746 mmHg 96%
    18:00 -2°C° 0 mm 3 m/s 746 mmHg 96%
    19:00 -2°C° 0 mm 3 m/s 746 mmHg 95%
    20:00 -4°C° 0 mm 3 m/s 747 mmHg 95%
    21:00 -3°C° 0 mm 2 m/s 747 mmHg 94%
    22:00 -5°C° 0 mm 3 m/s 747 mmHg 93%
    23:00 -5°C° 0 mm 3 m/s 747 mmHg 93%

    28 Martie, Joi

    Timp Temperatura Precipitaţii Vânt Presiune Umiditate
    00:00 -5°C° 0 mm 3 m/s 747 mmHg 92%
    01:00 -5°C° 0 mm 3 m/s 747 mmHg 91%
    02:00 -7°C° 0 mm 4 m/s 747 mmHg 91%
    03:00 -7°C° 0 mm 4 m/s 747 mmHg 90%
    04:00 -7°C° 0 mm 4 m/s 747 mmHg 90%
    05:00 -8°C° 0 mm 4 m/s 748 mmHg 89%
    06:00 -8°C° 0 mm 4 m/s 748 mmHg 89%
    07:00 -7°C° 0 mm 4 m/s 748 mmHg 88%
    08:00 -5°C° 0 mm 4 m/s 749 mmHg 87%
    09:00 -4°C° 0 mm 4 m/s 749 mmHg 86%
    10:00 -4°C° 0 mm 4 m/s 749 mmHg 85%
    11:00 -4°C° 0 mm 5 m/s 750 mmHg 85%
    12:00 -2°C° 0 mm 5 m/s 750 mmHg 84%
    13:00 -2°C° 0 mm 4 m/s 750 mmHg 84%
    14:00 -1°C° 0 mm 4 m/s 750 mmHg 84%
    15:00 -1°C° 0 mm 4 m/s 750 mmHg 84%
    16:00 -2°C° 0 mm 4 m/s 750 mmHg 84%
    17:00 -2°C° 0 mm 4 m/s 750 mmHg 84%
    18:00 -3°C° 0 mm 4 m/s 750 mmHg 84%
    19:00 -4°C° 0 mm 3 m/s 751 mmHg 85%
    20:00 -5°C° 0 mm 3 m/s 751 mmHg 87%
    21:00 -5°C° 0 mm 3 m/s 751 mmHg 88%
    22:00 -5°C° 0 mm 3 m/s 751 mmHg 89%
    23:00 -6°C° 0 mm 3 m/s 751 mmHg 91%

    29 Martie, Vineri

    Timp Temperatura Precipitaţii Vânt Presiune Umiditate
    00:00 -5°C° 0 mm 2 m/s 751 mmHg 92%
    01:00 -5°C° 0.1 mm 3 m/s 751 mmHg 93%
    02:00 -4°C° 0.1 mm 3 m/s 751 mmHg 94%
    03:00 -4°C° 0.1 mm 3 m/s 751 mmHg 94%
    04:00 -4°C° 0 mm 3 m/s 751 mmHg 94%
    05:00 -5°C° 0 mm 3 m/s 751 mmHg 93%
    06:00 -5°C° 0 mm 3 m/s 750 mmHg 93%
    07:00 -5°C° 0 mm 3 m/s 750 mmHg 90%
    08:00 -4°C° 0 mm 3 m/s 750 mmHg 88%
    09:00 -4°C° 0 mm 3 m/s 750 mmHg 86%
    10:00 -2°C° 0 mm 3 m/s 749 mmHg 83%
    11:00 -1°C° 0 mm 3 m/s 749 mmHg 81%
    12:00 0°C° 0 mm 3 m/s 748 mmHg 79%
    13:00 0°C° 0 mm 3 m/s 748 mmHg 79%
    14:00 0°C° 0 mm 3 m/s 747 mmHg 79%
    15:00 0°C° 0 mm 3 m/s 747 mmHg 79%
    16:00 +1°C° 0.1 mm 2 m/s 747 mmHg 81%
    17:00 -1°C° 0.1 mm 2 m/s 747 mmHg 82%
    18:00 -1°C° 0.1 mm 2 m/s 747 mmHg 83%
    19:00 +1°C° 0 mm 1 m/s 747 mmHg 84%
    20:00 +1°C° 0 mm 1 m/s 748 mmHg 86%
    21:00 +1°C° 0 mm 1 m/s 748 mmHg 87%
    22:00 0°C° 0 mm 1 m/s 748 mmHg 87%
    23:00 0°C° 0 mm 1 m/s 748 mmHg 88%

    30 Martie, Sâmbătă

    Timp Temperatura Precipitaţii Vânt Presiune Umiditate
    00:00 -1°C° 0 mm 1 m/s 749 mmHg 88%
    01:00 -1°C° 0 mm 1 m/s 749 mmHg 89%
    02:00 -2°C° 0 mm 0 m/s 749 mmHg 89%
    03:00 -2°C° 0 mm 0 m/s 749 mmHg 90%
    04:00 -2°C° 0 mm 0 m/s 749 mmHg 90%
    05:00 -1°C° 0 mm 0 m/s 749 mmHg 90%
    06:00 -1°C° 0 mm 0 m/s 750 mmHg 91%
    07:00 0°C° 0 mm 0 m/s 750 mmHg 91%
    08:00 +1°C° 0 mm 1 m/s 750 mmHg 92%
    09:00 +2°C° 0 mm 1 m/s 750 mmHg 93%
    10:00 +2°C° 0 mm 1 m/s 751 mmHg 91%
    11:00 +2°C° 0 mm 2 m/s 751 mmHg 89%
    12:00 +2°C° 0 mm 2 m/s 751 mmHg 87%
    13:00 +3°C° 0 mm 2 m/s 751 mmHg 86%
    14:00 +2°C° 0 mm 3 m/s 750 mmHg 85%
    15:00 +2°C° 0 mm 3 m/s 750 mmHg 85%
    16:00 +2°C° 0 mm 3 m/s 750 mmHg 84%
    17:00 +3°C° 0 mm 2 m/s 750 mmHg 84%
    18:00 +2°C° 0 mm 2 m/s 750 mmHg 83%
    19:00 +1°C° 0 mm 3 m/s 750 mmHg 84%
    20:00 0°C° 0 mm 3 m/s 750 mmHg 85%
    21:00 0°C° 0 mm 3 m/s 751 mmHg 86%
    22:00 -1°C° 0 mm 3 m/s 751 mmHg 87%
    23:00 -1°C° 0 mm 3 m/s 751 mmHg 89%
    Arată mai mult